When you browse on this site, cookies collect data to enhance your experience and personalize the content and advertising you see.
Visit our Privacy Policy to learn more. By continuing to use the site, you agree to this use of cookies and data.
  • In Hungary
  • List of Countries
  • For 7 days
  • Water Temperature
  • Satellite Maps
  • Weather Map
  • News
  • Weather Widgets
  • user-avatar
    Login

    Hourly Weather Dubno

    Today, 18 November, Sunday

    Time Temperature Precipitation Wind Pressure Humidity
    00:00 -1°C° 0 mm 1 mps 758 mmHg 49%
    01:00 -1°C° 0 mm 1 mps 757 mmHg 49%
    02:00 -2°C° 0 mm 0 mps 757 mmHg 48%
    03:00 -2°C° 0 mm 0 mps 756 mmHg 48%
    04:00 -1°C° 0 mm 1 mps 755 mmHg 48%
    05:00 -1°C° 0 mm 1 mps 755 mmHg 48%
    06:00 -1°C° 0 mm 1 mps 754 mmHg 48%
    07:00 -1°C° 0 mm 1 mps 754 mmHg 48%
    08:00 -4°C° 0 mm 2 mps 753 mmHg 47%
    09:00 -3°C° 0 mm 2 mps 753 mmHg 42%
    10:00 +1°C° 0 mm 1 mps 752 mmHg 38%
    11:00 +2°C° 0 mm 1 mps 752 mmHg 33%
    12:00 +2°C° 0 mm 1 mps 751 mmHg 32%
    13:00 +3°C° 0 mm 1 mps 751 mmHg 31%
    14:00 +2°C° 0 mm 2 mps 750 mmHg 33%
    15:00 +1°C° 0 mm 2 mps 750 mmHg 37%
    16:00 +1°C° 0 mm 1 mps 750 mmHg 41%
    17:00 0°C° 0 mm 1 mps 749 mmHg 46%
    18:00 0°C° 0 mm 1 mps 749 mmHg 47%
    19:00 -1°C° 0 mm 0 mps 749 mmHg 49%
    20:00 -2°C° 0 mm 0 mps 749 mmHg 50%
    21:00 -2°C° 0 mm 0 mps 749 mmHg 51%
    22:00 -1°C° 0 mm 1 mps 749 mmHg 51%
    23:00 -1°C° 0 mm 1 mps 749 mmHg 52%

    Tomorrow, 19 November, Monday

    Time Temperature Precipitation Wind Pressure Humidity
    00:00 -1°C° 0 mm 1 mps 749 mmHg 51%
    01:00 -1°C° 0 mm 1 mps 749 mmHg 51%
    02:00 -3°C° 0 mm 2 mps 749 mmHg 50%
    03:00 -3°C° 0 mm 2 mps 749 mmHg 50%
    04:00 -3°C° 0 mm 2 mps 749 mmHg 50%
    05:00 -3°C° 0 mm 2 mps 749 mmHg 49%
    06:00 -4°C° 0 mm 3 mps 749 mmHg 49%
    07:00 -4°C° 0 mm 3 mps 749 mmHg 49%
    08:00 -4°C° 0 mm 3 mps 749 mmHg 49%
    09:00 -2°C° 0 mm 3 mps 749 mmHg 48%
    10:00 -2°C° 0 mm 4 mps 749 mmHg 46%
    11:00 -1°C° 0 mm 4 mps 749 mmHg 44%
    12:00 -1°C° 0 mm 4 mps 749 mmHg 44%
    13:00 -1°C° 0 mm 4 mps 749 mmHg 45%
    14:00 -1°C° 0 mm 5 mps 749 mmHg 45%
    15:00 -1°C° 0 mm 4 mps 749 mmHg 48%
    16:00 -2°C° 0 mm 4 mps 749 mmHg 52%
    17:00 -2°C° 0 mm 4 mps 749 mmHg 55%
    18:00 -2°C° 0 mm 4 mps 750 mmHg 57%
    19:00 -2°C° 0 mm 4 mps 750 mmHg 59%
    20:00 -3°C° 0 mm 4 mps 750 mmHg 61%
    21:00 -3°C° 0 mm 4 mps 750 mmHg 63%
    22:00 -3°C° 0 mm 4 mps 750 mmHg 66%
    23:00 -4°C° 0 mm 3 mps 750 mmHg 69%

    Day after tomorrow, 20 November, Tuesday

    Time Temperature Precipitation Wind Pressure Humidity
    00:00 -4°C° 0 mm 3 mps 751 mmHg 71%
    01:00 -4°C° 0 mm 3 mps 751 mmHg 73%
    02:00 -5°C° 0 mm 3 mps 751 mmHg 75%
    03:00 -5°C° 0 mm 3 mps 751 mmHg 77%
    04:00 -5°C° 0 mm 3 mps 751 mmHg 79%
    05:00 -4°C° 0 mm 2 mps 751 mmHg 81%
    06:00 -5°C° 0 mm 3 mps 751 mmHg 81%
    07:00 -5°C° 0 mm 3 mps 751 mmHg 82%
    08:00 -5°C° 0 mm 3 mps 751 mmHg 82%
    09:00 -4°C° 0 mm 4 mps 751 mmHg 76%
    10:00 -3°C° 0 mm 4 mps 751 mmHg 70%
    11:00 -2°C° 0 mm 4 mps 751 mmHg 64%
    12:00 -1°C° 0 mm 4 mps 751 mmHg 61%
    13:00 -1°C° 0 mm 4 mps 751 mmHg 59%
    14:00 0°C° 0 mm 5 mps 750 mmHg 57%
    15:00 -1°C° 0 mm 4 mps 750 mmHg 62%
    16:00 -2°C° 0 mm 4 mps 750 mmHg 67%
    17:00 -3°C° 0 mm 4 mps 750 mmHg 72%
    18:00 -3°C° 0 mm 4 mps 750 mmHg 75%
    19:00 -3°C° 0 mm 4 mps 750 mmHg 77%
    20:00 -5°C° 0 mm 5 mps 750 mmHg 80%
    21:00 -4°C° 0 mm 4 mps 750 mmHg 82%
    22:00 -4°C° 0 mm 4 mps 750 mmHg 84%
    23:00 -4°C° 0 mm 4 mps 750 mmHg 85%

    21 November, Wednesday

    Time Temperature Precipitation Wind Pressure Humidity
    00:00 -4°C° 0 mm 4 mps 750 mmHg 86%
    01:00 -4°C° 0 mm 4 mps 750 mmHg 87%
    02:00 -4°C° 0 mm 4 mps 750 mmHg 88%
    03:00 -4°C° 0 mm 4 mps 750 mmHg 88%
    04:00 -4°C° 0 mm 4 mps 750 mmHg 87%
    05:00 -5°C° 0 mm 5 mps 750 mmHg 86%
    06:00 -6°C° 0 mm 5 mps 750 mmHg 85%
    07:00 -6°C° 0 mm 5 mps 750 mmHg 85%
    08:00 -6°C° 0 mm 5 mps 750 mmHg 84%
    09:00 -5°C° 0 mm 5 mps 750 mmHg 80%
    10:00 -4°C° 0 mm 5 mps 751 mmHg 76%
    11:00 -3°C° 0 mm 4 mps 751 mmHg 72%
    12:00 -2°C° 0 mm 4 mps 751 mmHg 69%
    13:00 -1°C° 0 mm 4 mps 751 mmHg 66%
    14:00 -1°C° 0 mm 4 mps 751 mmHg 63%
    15:00 -2°C° 0 mm 4 mps 751 mmHg 68%
    16:00 -2°C° 0 mm 3 mps 751 mmHg 74%
    17:00 -4°C° 0 mm 3 mps 751 mmHg 79%
    18:00 -4°C° 0 mm 3 mps 751 mmHg 82%
    19:00 -4°C° 0 mm 3 mps 751 mmHg 84%
    20:00 -5°C° 0 mm 3 mps 751 mmHg 86%
    21:00 -5°C° 0 mm 3 mps 752 mmHg 87%
    22:00 -5°C° 0 mm 3 mps 752 mmHg 88%
    23:00 -5°C° 0 mm 3 mps 752 mmHg 89%

    22 November, Thursday

    Time Temperature Precipitation Wind Pressure Humidity
    00:00 -5°C° 0 mm 3 mps 752 mmHg 89%
    01:00 -5°C° 0 mm 3 mps 752 mmHg 90%
    02:00 -5°C° 0 mm 3 mps 752 mmHg 90%
    03:00 -4°C° 0 mm 2 mps 753 mmHg 90%
    04:00 -4°C° 0 mm 2 mps 753 mmHg 91%
    05:00 -4°C° 0 mm 2 mps 753 mmHg 91%
    06:00 -5°C° 0 mm 2 mps 753 mmHg 92%
    07:00 -5°C° 0 mm 2 mps 753 mmHg 92%
    08:00 -5°C° 0 mm 2 mps 753 mmHg 92%
    09:00 -4°C° 0 mm 2 mps 754 mmHg 85%
    10:00 -3°C° 0 mm 2 mps 754 mmHg 79%
    11:00 -1°C° 0 mm 2 mps 754 mmHg 72%
    12:00 -1°C° 0 mm 2 mps 754 mmHg 69%
    13:00 +1°C° 0 mm 2 mps 754 mmHg 67%
    14:00 +1°C° 0 mm 2 mps 754 mmHg 64%
    15:00 -1°C° 0 mm 2 mps 754 mmHg 69%
    16:00 -2°C° 0 mm 2 mps 754 mmHg 75%
    17:00 -3°C° 0 mm 2 mps 754 mmHg 80%
    18:00 -3°C° 0 mm 2 mps 754 mmHg 82%
    19:00 -4°C° 0 mm 2 mps 755 mmHg 84%
    20:00 -4°C° 0 mm 2 mps 755 mmHg 86%
    21:00 -2°C° 0 mm 1 mps 755 mmHg 86%
    22:00 -2°C° 0 mm 1 mps 755 mmHg 87%
    23:00 -2°C° 0 mm 1 mps 756 mmHg 87%

    23 November, Friday

    Time Temperature Precipitation Wind Pressure Humidity
    00:00 -2°C° 0 mm 1 mps 756 mmHg 87%
    01:00 -2°C° 0 mm 1 mps 756 mmHg 87%
    02:00 -3°C° 0 mm 1 mps 756 mmHg 87%
    03:00 -3°C° 0 mm 1 mps 756 mmHg 87%
    04:00 -3°C° 0 mm 1 mps 756 mmHg 87%
    05:00 -3°C° 0 mm 1 mps 756 mmHg 87%
    06:00 -3°C° 0 mm 1 mps 756 mmHg 87%
    07:00 -3°C° 0 mm 1 mps 756 mmHg 87%
    08:00 -3°C° 0 mm 1 mps 756 mmHg 87%
    09:00 -2°C° 0 mm 1 mps 756 mmHg 80%
    10:00 -1°C° 0 mm 1 mps 757 mmHg 72%
    11:00 +1°C° 0 mm 1 mps 757 mmHg 65%
    12:00 +1°C° 0 mm 1 mps 756 mmHg 61%
    13:00 +1°C° 0 mm 2 mps 756 mmHg 57%
    14:00 +2°C° 0 mm 2 mps 756 mmHg 53%
    15:00 +1°C° 0 mm 2 mps 756 mmHg 58%
    16:00 -1°C° 0 mm 2 mps 755 mmHg 62%
    17:00 -2°C° 0 mm 2 mps 755 mmHg 67%
    18:00 -3°C° 0 mm 2 mps 755 mmHg 68%
    19:00 -3°C° 0 mm 2 mps 755 mmHg 68%
    20:00 -3°C° 0 mm 2 mps 754 mmHg 69%
    21:00 -3°C° 0 mm 2 mps 754 mmHg 69%
    22:00 -4°C° 0 mm 3 mps 754 mmHg 69%
    23:00 -4°C° 0 mm 3 mps 753 mmHg 68%
    Show more